Tracking 21612 objects as of 20-Oct-2020
HD Live streaming from Space Station
objects crossing your sky now

SL-3 DEB

Track SL-3 DEB now!
10-day predictions


NORAD ID: 14928
Int'l Code: 1983-075F
Perigee: 512.0 km
Apogee: 556.7 km
Inclination: 97.9 °
Period: 95.2 minutes
Semi major axis: 6905 km
RCS: 0.0341 m2 (small)
Launch date: July 24, 1983
Source: Commonwealth of Independent States (former USSR) (CIS)
Launch site: TYURATAM MISSILE AND SPACE COMPLEX (TTMTR)

Note: This is SATELLITE DEBRIS
aabbcc
Your satellite tracking list
Your tracking list is empty




NASA's NSSDC Master Catalog

Two Line Element Set (TLE):
1 14928U 83075F   20293.87638426 +.00000289 +00000-0 +20309-4 0  9994
2 14928 097.9150 145.7356 0032407 015.7696 355.4205 15.12952617004892
Source of the keplerian elements: AFSPC